Location: Parc National du Mont-Orford
(45.3122°N, 72.2403°W)
Time: 22:33:47
(UTC-05:00)

Envisat - Pass Details

Date: 27 January 2018
Orbit: 764 x 766 km, 98.2° (Epoch: 24 February)

Event Time Altitude Azimuth Distance (km) Brightness Sun altitude
Exits shadow 17:46:55 13° 82° (E) 2,092 4.6 -10.3°
Maximum altitude 17:48:43 16° 58° (ENE) 1,948 4.5 -10.7°
Drops below altitude 10° 17:51:38 10° 23° (NNE) 2,312 5.1 -11.1°
Sets 17:54:49 0° 2° (N) 3,243 6.1 -11.7°
